Погода в Меловом

Россия / Белгородская область     50°54′27″N   36°04′06″E
темп.,
°C
ветер,
м/с
пор.,
м/с
влажн.,
%
обл.,
%
осадки,
мм/ч
давл.,
гПа
погр.,
м
21 января, пт
пт2100:00−5ю71592100 0.1 1009439
03:00−5ю61396100 0.6 1006495
06:00−4ю61296100 1.7 1003558
09:00−3юз51095100 2.9 1003443
12:00−3зюз61090100 0.2 1003882
15:00−4юз7139094 0.3 1003740
18:00−4юз81593100 0.2 1003757
21:00−5юз81694100 0.4 1003696
22 января, сб
сб2200:00−5юз81491100 0.6 1005663
03:00−5юз7139395 1.0 1005611
06:00−6ююз6139398 0.1 1005471
09:00−6ююз6129389 0.3 1007375
12:00−5ююз5994100 0.1 1008406
15:00−3ююз589599 0.2 1009580
18:00−6ююз359798 0.3 101194
21:00−7ююз389790 0.4 1013151
23 января, вс
вс2300:00−11ю339869 0.1 101435
03:00−10ю359895 0.1 101681
06:00−12ююв249794 0.1 101858
09:00−11юв359653 0.2 102185
12:00−8вюв249795 0.0 1023147
15:00−6всв359470 0.0 1024261
18:00−11св389755 0.0 1027101
21:00−14св3997100 0.0 1029132
24 января, пн
пн2400:00−11ссв5139488 0.0 1029235
03:00−10ссв61690100 0.0 1029347
06:00−8ссв71794100 0.3 1028504
09:00−7св71494100 1.6 1029444
12:00−6св7129389 0.6 1029444
15:00−6св61193100 0.6 1029471
18:00−9св4119566 0.0 1030231
21:00−10св51195100 0.1 1030252
25 января, вт
вт2500:00−10св499596 0.0 1030177
03:00−12ссв4996100 0.0 1030150
06:00−13св4996100 0.0 1029139
09:00−14св3796100 0.0 1029131
12:00−10всв3593100 0.0 1028172
15:00−8св239472 0.0 1026193
18:00−13св229980 0.0 102611
21:00−16всв1110097 0.1 10269